Flag for Uruguay Weather past 2 weeks in Canelones, Uruguay

Now
59 °F

Clear.


Feels Like: 57 °F
Forecast: 50 / 69 °F
Wind: 9 mph from Northwest

Location: Carrasco

Current Time: Apr 18, 2015 at 2:07:49 AM

Latest Report: Apr 18, 2015 at 1:00 AM


Visibility: 10 mi

Pressure: 29.83 "Hg

Humidity: 68%

Dew point: 48 °F

Location of CanelonesLocation

Historic Weather in Canelones — Graph

°F

Canelones temperature yesterday

Maximum temperature yesterday: 70 °F (at 4:00 PM)
Minimum temperature yesterday: 57 °F (at 9:00 PM)
Average temperature yesterday: 64 °F

Past Weeks' High & Low Weather Summary

 TemperatureHumidityPressure
High88 °F (Apr 3, 3:00 PM)100% (Apr 9, 7:00 AM)30.18 "Hg (Apr 9, 7:00 AM)
Low50 °F (Apr 7, 6:00 AM)27% (Apr 3, 3:00 PM)29.77 "Hg (Apr 3, 3:00 PM)
Average67 °F69%29.99 "Hg
* Reported Apr 3 1:00 AM — Apr 18 1:00 AM, Canelones, Weather by CustomWeather, © 2015

Note: Actual official high and low records may vary slightly from our data, if they occured in-between our weather recording intervals... More about our weather records

Advertising

Canelones weather history for previous 24 hours

 ConditionsComfort  
Time TempWeatherWind HumidityBarometerVisibility
1:00 AM
Sat, Apr 18
59 °FClear.9 mph68%29.83 "Hg10 mi
12:00 AM59 °FClear.13 mph68%29.83 "Hg10 mi
11:00 PM
Fri, Apr 17
61 °FClear.9 mph63%29.86 "Hg10 mi
10:00 PM61 °FClear.10 mph63%29.86 "Hg10 mi
9:00 PM57 °FClear.6 mph77%29.83 "Hg10 mi
8:00 PM61 °FClear.8 mph68%29.83 "Hg10 mi
7:00 PM63 °FPassing clouds.15 mph64%29.83 "HgN/A
6:00 PM68 °FPassing clouds.12 mph56%29.83 "HgN/A
5:00 PM70 °FSunny.12 mph64%29.80 "Hg10 mi
4:00 PM70 °FPassing clouds.14 mph64%29.80 "HgN/A
3:00 PM66 °FPartly sunny.16 mph83%29.80 "HgN/A
2:00 PM68 °FPartly sunny.13 mph78%29.83 "HgN/A
1:00 PM66 °FPartly sunny.13 mph83%29.89 "HgN/A
12:00 PM64 °FBroken clouds.9 mph88%29.89 "HgN/A
11:00 AM63 °FMild.5 mph88%29.89 "HgN/A
10:00 AM61 °FLight rain. Low clouds.8 mph100%29.89 "HgN/A
9:00 AM61 °FLight rain. Low clouds.7 mph100%29.92 "Hg4 mi
8:00 AM61 °FLight rain. Clear.7 mph100%29.89 "Hg4 mi
7:00 AM61 °FLight rain. Overcast.9 mph94%29.89 "Hg5 mi
6:00 AM61 °FRain. Mostly cloudy.6 mph94%29.89 "Hg5 mi
5:00 AM63 °FThunderstorms. Overcast.7 mph94%29.89 "Hg5 mi
4:15 AM64 °FThunderstorms. Overcast.17 mph88%29.89 "Hg2 mi
4:00 AM66 °FRain. Partly cloudy.17 mph83%29.89 "Hg2 mi
3:00 AM66 °FLight rain. Clear.20 mph73%29.86 "HgN/A
2:00 AM66 °FClear.17 mph73%29.89 "Hg10 mi
Weather by CustomWeather, © 2015

See weather overviewHow to use our weather pages